Presure
134 159 134 221 145 221 93 272 270 324 315 326 336 370 330 236 348 342 366 327 325 322 311 322 323 276 261 263 253 262 208 205 200 201 217 204 180 195 208 215 197 192 184 172 178 155 167
153 120 233 241 203 220 243 275 278 319 306 372 374 450 475 484 462 425 329 346 321 329 309 314 323 290 272 265 257 242 233 200 224 207 207 190 219 219 161 215 210 192 197 175 181 179 166
111 109 241 249 186 222 242 268 288 310 370 381 507 522 528 508 492 462 419 314 336 313 313 299 317 300 313 271 255 253 242 213 205 222 205 204 204 217 209 204 207 207 191 195 179 185 183
161 233 184 193 184 230 247 271 336 296 345 358 561 539 533 527 523 521 460 351 331 326 311 302 314 304 307 279 262 252 249 245 229 230 210 201 215 197 225 222 218 208 201 196 195 188 187
220 167 251 174 185 233 248 281 311 323 351 487 544 524 525 506 512 515 541 422 314 331 307 299 298 313 296 256 256 255 256 240 240 211 202 235 223 204 206 205 216 216 182 211 206 194 189
126 190 210 180 184 239 246 282 338 326 360 463 545 499 484 476 486 496 509 447 323 318 309 293 294 313 284 283 259 256 253 241 230 229 254 215 207 223 212 186 186 192 204 216 214 212 212
218 158 256 179 227 239 248 283 335 320 416 454 498 473 458 452 444 469 492 550 334 305 298 295 297 294 308 280 277 257 259 245 241 243 233 253 204 202 201 197 191 188 207 205 198 214 212
135 150 206 177 214 234 249 282 329 345 447 446 469 452 456 444 440 449 484 540 546 304 295 286 286 278 297 293 278 259 249 252 243 243 239 235 238 245 205 231 215 202 204 199 204 198 208
108 238 206 167 215 235 250 284 328 382 453 435 448 447 449 437 438 437 495 433 587 296 299 284 280 275 277 299 290 271 246 242 252 239 237 229 232 244 246 217 208 192 188 206 204 201 181
213 247 195 182 212 233 252 304 326 439 454 448 462 465 446 425 431 450 480 416 521 290 291 278 269 275 283 289 299 283 270 241 241 243 241 223 229 241 238 243 236 218 216 238 206 211 195
101 195 197 165 191 229 252 302 331 477 465 461 465 457 449 447 462 465 460 410 445 290 290 272 264 277 273 276 292 283 280 262 249 249 236 237 236 236 230 233 243 236 231 233 254 235 230
106 241 192 182 203 224 252 310 323 491 481 465 467 464 468 467 486 497 423 487 397 285 279 274 169 272 268 270 276 284 287 273 258 253 250 237 225 232 230 226 227 237 249 249 241 241 247
117 241 182 188 194 224 241 323 329 536 511 465 477 492 488 489 477 462 397 417 373 284 274 270 271 267 264 256 256 259 328 302 270 244 245 252 235 234 236 224 230 226 244 242 230 242 236
151 250 130 188 194 240 242 297 343 545 490 494 499 430 429 478 469 381 409 392 360 183 271 265 261 265 257 251 254 263 278 326 292 281 276 252 247 238 232 240 247 228 240 232 234 233 226
214 250 173 179 215 245 255 318 441 543 534 514 404 386 444 435 384 375 369 345 378 270 262 262 263 261 252 248 249 257 263 263 311 284 275 285 257 246 247 239 246 232 247 236 233 234 238
211 145 190 180 215 261 257 309 385 522 478 399 375 357 348 343 346 353 344 358 309 265 263 255 251 249 235 244 250 252 249 261 260 305 281 280 276 278 281 271 260 240 255 237 231 230 231
225 147 161 180 216 263 265 330 310 365 413 370 370 366 340 326 332 364 352 339 275 257 251 251 257 248 240 242 243 257 259 247 275 306 282 262 258 259 262 263 267 258 257 253 255 252 243
231 185 127 178 215 236 296 321 309 356 377 393 384 347 352 349 315 333 380 288 271 254 252 247 228 226 226 237 245 261 303 300 294 288 286 272 259 251 253 258 251 250 252 251 255 252 275
252 183 126 204 216 272 278 317 314 294 366 389 336 336 316 339 356 327 300 266 262 251 248 247 226 228 237 241 306 292 284 286 281 279 279 284 278 256 260 253 251 257 265 267 257 250 242
225 182 163 177 248 275 275 315 283 284 391 336 329 291 334 372 338 350 275 267 258 252 232 229 228 234 256 266 259 258 259 260 264 268 272 278 287 293 296 268 251 244 239 230 226 235 245
197 183 155 204 269 262 271 277 261 310 333 344 293 280 261 300 346 297 278 270 248 244 232 239 242 258 266 253 247 242 248 248 249 245 242 232 231 232 233 232 226 223 247 246 240 247 242
200 176 174 192 266 286 272 278 272 286 328 306 317 284 273 265 253 232 287 208 253 234 238 239 274 261 251 245 242 238 238 238 232 230 225 223 223 223 256 263 246 237 235 247 234 231 226
206 184 203 279 266 283 275 276 268 297 290 337 331 318 280 265 261 251 247 250 228 251 275 274 256 251 241 239 233 233 233 225 220 237 273 259 252 253 243 236 223 218 211 226 230 235 224
220 199 126 271 291 282 275 279 286 286 290 287 316 304 326 274 263 254 250 241 248 285 267 260 251 248 241 234 232 230 257 289 262 246 239 229 217 211 207 211 215 223 240 229 232 221 222
164 206 282 232 288 282 275 279 274 269 264 313 303 327 290 345 287 262 254 245 288 271 255 253 250 243 236 233 234 225 221 215 217 212 211 211 207 225 222 249 238 235 234 237 222 225 211
221 276 279 271 289 286 279 272 271 269 271 296 300 308 330 281 322 354 258 247 250 240 262 255 248 240 235 230 226 222 220 214 210 212 213 212 224 218 216 246 238 234 229 219 232 226 219
286 280 278 284 290 291 277 270 258 279 279 287 300 289 303 330 293 298 328 263 249 252 256 247 253 245 236 235 227 223 218 221 218 218 218 224 218 219 209 245 235 233 228 227 222 223 228
281 280 282 289 299 96 283 267 272 263 286 283 273 298 298 299 328 304 279 314 300 256 245 242 234 248 228 233 232 226 226 218 217 216 216 206 227 209 230 235 240 232 226 215 195 222 209
283 269 307 293 279 267 290 267 270 287 269 293 269 270 314 291 290 313 309 268 301 295 260 245 240 243 224 242 235 231 226 226 220 216 220 230 224 237 250 246 178 232 229 162 237 222 213
Wind_Speed
62 77 60 98 72 97 44 111 108 99 97 93 90 79 73 39 66 54 54 62 60 60 60 61 72 96 91 90 90 90 99 94 92 93 95 90 80 90 104 99 102 96 94 85 93 80 82
70 64 107 106 93 97 104 114 112 105 102 94 89 72 66 60 58 60 57 59 64 64 62 60 67 82 95 95 93 95 98 94 98 95 93 87 95 98 70 100 98 96 98 87 95 98 86
45 51 108 109 91 99 105 115 115 105 100 95 67 59 47 47 44 49 61 62 63 65 65 65 70 76 86 104 91 91 95 101 97 97 94 93 91 94 97 94 96 95 93 98 94 100 95
84 109 90 95 95 103 111 119 111 111 107 101 33 33 31 27 28 33 48 67 65 68 68 68 66 73 78 97 94 92 91 91 96 93 96 93 93 89 93 92 94 95 95 98 103 95 95
104 87 110 88 99 106 114 124 121 115 106 73 30 26 19 18 19 20 18 60 68 70 69 67 64 71 76 88 93 93 89 92 87 97 95 95 96 91 90 86 89 86 81 92 102 99 95
69 94 94 89 100 110 115 126 114 117 106 74 22 22 19 16 14 12 12 40 71 70 72 68 67 65 81 86 93 91 91 90 92 95 86 95 90 94 90 80 83 83 86 84 85 90 90
105 81 112 89 104 113 117 127 115 119 91 72 35 27 22 22 16 9 8 18 72 71 70 66 60 56 72 82 92 88 88 88 89 87 89 81 90 88 89 89 84 81 85 82 81 86 82
71 75 98 90 99 112 119 127 116 114 80 71 47 36 21 15 14 12 8 14 26 68 65 62 61 63 63 77 84 94 87 88 87 84 84 84 79 82 91 89 89 83 84 84 84 77 82
46 111 96 89 101 115 121 126 114 103 71 65 50 38 24 17 13 5 6 34 28 65 66 61 59 64 63 66 77 86 88 86 87 84 84 84 79 77 78 88 87 82 81 86 86 85 74
105 116 93 94 100 117 122 122 113 85 64 55 43 27 23 15 7 5 12 39 47 64 64 58 55 59 55 54 63 77 86 84 81 81 82 83 78 76 77 73 77 86 87 87 87 88 79
47 92 92 84 95 117 124 120 112 63 54 45 33 26 20 13 9 4 26 45 59 65 65 55 52 50 48 46 49 61 73 83 88 88 82 80 77 76 76 74 67 74 78 77 77 83 87
40 114 91 92 99 112 124 113 108 53 44 37 30 28 19 6 3 17 41 55 66 61 60 52 12 43 41 40 39 41 58 76 80 80 82 77 76 73 75 75 73 70 67 66 72 75 71
40 113 90 92 94 112 120 103 104 39 30 32 29 21 12 13 24 38 47 64 70 60 50 44 41 40 40 39 37 40 36 57 72 74 77 82 76 74 75 71 69 72 66 62 68 65 71
84 118 67 92 93 121 119 110 96 30 32 27 23 31 29 31 42 40 55 54 65 6 43 45 39 39 38 37 35 35 31 43 59 63 74 80 76 72 69 72 72 70 67 66 65 68 72
109 116 88 91 109 121 120 97 79 26 29 29 40 33 51 56 49 39 49 58 44 53 44 37 34 35 32 30 29 26 25 28 48 58 59 58 69 71 71 68 69 69 66 67 68 66 64
108 75 95 92 112 116 116 95 85 42 50 49 42 40 40 40 41 47 46 42 59 49 43 40 35 29 26 24 23 23 25 28 31 48 51 48 43 41 42 57 65 66 63 65 65 64 63
114 77 80 92 114 113 109 85 89 77 42 43 30 41 32 30 39 25 40 50 53 38 35 33 31 28 23 19 17 19 24 27 28 37 47 46 44 43 41 38 42 52 55 58 63 70 67
113 92 60 92 113 94 91 79 81 71 62 27 31 27 32 28 25 31 25 53 44 36 32 26 29 26 20 12 10 16 20 23 25 31 40 51 47 39 39 40 41 43 44 47 50 55 51
104 89 58 105 114 98 92 77 72 75 53 35 42 36 24 21 26 29 48 36 37 29 27 24 25 19 13 10 13 14 17 20 24 28 31 34 39 33 35 34 35 37 38 37 35 36 36
98 88 80 92 102 86 83 71 76 71 42 34 32 36 30 19 22 23 36 35 32 27 22 20 18 15 16 21 20 19 22 23 23 23 24 25 27 28 26 30 30 29 29 31 33 32 29
96 87 74 104 86 86 77 74 80 58 48 33 31 30 29 26 27 34 32 34 22 19 15 14 15 16 22 25 26 25 25 24 25 25 23 23 25 26 27 27 26 27 25 24 26 17 21
97 84 84 91 81 64 69 66 65 60 49 35 19 22 19 16 13 17 27 14 18 13 16 17 21 23 23 24 24 22 21 21 21 21 22 24 22 22 29 28 25 24 24 15 19 21 25
97 88 96 72 76 60 60 61 61 48 48 41 28 10 11 14 5 4 5 7 1 14 19 26 28 26 24 22 20 19 19 18 18 22 30 32 29 29 23 21 20 21 23 23 22 16 21
94 93 51 70 54 56 55 56 58 50 45 38 30 20 7 7 9 10 6 5 6 21 25 25 24 24 23 21 19 19 22 29 27 26 20 19 12 14 16 19 22 24 22 21 19 20 20
80 93 65 62 50 52 53 50 52 53 49 40 29 29 15 12 13 13 13 12 17 25 23 23 23 22 21 21 22 21 21 20 17 16 15 15 16 17 19 24 22 24 23 24 22 20 20
92 68 63 64 47 44 46 48 51 50 48 40 36 29 28 15 8 11 19 18 17 15 27 28 26 23 23 21 20 21 20 20 20 19 19 18 18 19 20 24 27 27 27 20 21 23 22
62 61 60 54 45 41 44 45 56 49 47 43 41 34 28 27 13 12 11 26 22 21 25 24 27 26 24 25 23 22 22 22 22 22 22 20 20 19 18 28 28 30 25 23 18 18 22
61 59 57 48 37 30 42 45 44 51 47 44 43 40 34 27 28 14 20 13 23 30 24 22 25 29 27 27 26 25 26 25 24 24 24 20 22 18 18 21 34 31 28 18 16 16 1
59 62 40 43 47 49 39 46 46 46 47 47 43 41 40 34 25 27 20 25 18 34 37 30 29 30 26 33 31 30 29 29 29 29 27 26 24 21 25 26 20 30 29 14 25 21 12
Wind_Direction
342 350 336 346 341 348 329 346 346 333 334 329 323 312 308 286 280 262 252 241 238 229 225 225 217 219 221 221 219 219 222 224 225 226 227 229 234 232 233 234 235 237 235 236 240 240 242
345 353 346 345 346 347 346 347 345 335 334 326 320 306 292 282 269 255 243 235 235 224 224 221 218 218 219 220 218 218 221 224 223 225 226 228 227 228 235 235 237 235 237 235 239 239 238
337 332 344 345 352 347 348 347 345 337 333 328 312 304 296 287 273 254 238 232 225 227 219 218 217 215 213 219 218 219 218 222 223 223 226 227 229 230 232 234 234 235 235 236 237 240 240
347 347 345 347 351 348 348 347 335 342 338 332 314 305 294 290 282 263 236 222 218 217 215 216 214 209 211 214 217 219 218 219 222 224 224 226 228 230 231 232 233 235 238 238 239 240 242
346 348 343 351 349 349 349 346 341 341 338 342 326 323 318 309 296 276 267 218 215 210 212 215 211 207 207 215 217 217 219 218 221 223 225 225 227 229 231 232 233 234 236 237 240 240 243
358 347 344 346 346 350 350 347 339 342 338 345 340 339 339 332 332 328 251 211 206 208 208 211 210 205 208 209 215 217 217 217 219 222 225 225 227 227 231 234 233 235 237 236 238 241 243
345 350 344 345 348 351 350 346 342 343 342 347 354 348 345 333 305 317 251 246 198 207 210 210 209 204 207 211 214 215 218 217 219 222 224 225 226 229 231 231 233 235 239 239 240 240 241
355 352 348 352 349 352 351 346 344 342 346 347 351 349 351 343 326 285 226 220 195 203 206 206 206 204 205 205 209 215 217 219 219 221 223 225 226 227 229 231 233 235 237 239 241 243 241
337 345 348 354 351 351 351 347 345 342 347 345 345 341 342 329 322 285 274 178 174 196 200 204 203 204 207 205 208 213 215 218 221 219 221 223 226 228 230 230 232 233 235 239 241 241 246
344 343 346 344 351 351 350 344 346 346 346 343 341 326 329 325 330 309 176 170 165 190 195 202 203 204 205 204 203 208 215 219 221 221 223 224 227 229 231 231 233 233 235 238 239 241 244
340 346 345 344 349 351 349 345 347 349 346 342 350 357 339 326 297 148 159 161 160 187 189 194 199 200 201 202 200 207 212 220 224 227 223 224 225 227 228 231 237 235 236 238 241 240 240
334 341 345 345 351 351 348 344 349 347 347 344 349 345 345 6 119 136 152 152 161 183 188 193 228 196 196 197 198 203 211 216 219 224 228 227 225 227 227 231 234 240 243 241 240 242 244
349 340 343 346 350 351 349 347 350 353 357 4 2 359 32 94 122 131 148 151 162 179 181 183 191 189 190 193 196 204 207 210 218 226 227 229 227 229 232 231 234 237 241 240 241 242 243
349 338 359 346 350 347 348 345 352 13 18 24 31 71 73 111 115 134 128 146 165 32 170 180 184 184 185 193 201 206 208 204 210 216 221 228 230 230 233 238 239 238 239 240 241 242 245
341 336 348 345 349 344 344 349 7 31 48 55 86 70 84 100 106 115 141 158 162 166 170 177 180 176 180 191 197 199 203 207 207 216 222 225 229 231 233 234 235 237 240 241 244 247 250
338 349 341 343 346 340 343 348 6 35 84 77 73 83 92 112 124 132 139 150 155 164 167 167 169 170 174 184 193 201 207 209 213 211 217 220 219 220 223 232 237 237 242 243 247 250 252
335 345 347 342 343 338 342 356 357 12 78 43 84 102 98 106 91 105 148 143 153 155 157 163 168 165 170 177 189 206 208 213 209 204 213 213 216 219 222 224 230 237 241 245 249 251 255
332 337 354 340 341 340 346 357 359 11 23 61 92 44 110 108 109 86 97 144 151 150 158 154 147 152 161 170 197 223 197 188 185 195 206 213 216 220 224 225 230 235 241 247 249 252 256
327 336 352 339 338 336 340 357 1 0 22 36 33 47 50 82 113 116 135 146 149 152 151 153 148 151 158 177 193 180 172 171 180 189 199 207 215 216 224 228 232 238 241 239 240 245 252
329 336 341 336 334 336 339 356 351 358 23 29 42 30 45 72 91 118 141 148 149 151 136 140 147 163 169 154 153 157 163 164 165 170 180 190 198 201 202 212 215 219 226 236 246 249 252
332 334 341 335 331 334 337 342 342 3 20 21 15 17 24 76 102 132 146 154 138 141 137 165 180 179 166 158 160 166 169 170 167 170 171 178 189 196 203 212 219 229 219 221 235 246 260
329 332 337 334 330 333 334 340 343 357 19 20 19 4 13 41 46 15 136 9 153 154 170 180 170 173 170 167 166 170 172 174 174 175 184 194 199 207 200 190 196 210 222 214 237 253 267
326 329 331 325 326 328 332 335 338 358 360 19 20 10 345 350 5 38 95 144 246 188 186 174 174 173 173 172 170 169 173 178 184 187 172 176 186 185 190 199 223 234 248 244 238 222 255
321 327 344 322 323 326 329 332 341 348 356 0 17 9 339 292 295 304 283 285 270 182 178 182 183 178 173 174 174 174 188 185 180 172 172 182 196 210 224 235 239 239 209 226 213 239 256
323 324 317 324 321 322 325 330 333 336 343 358 360 15 344 1 242 261 267 266 195 189 196 196 190 187 187 183 179 182 183 190 190 198 203 210 219 220 226 195 210 215 220 206 236 235 271
316 313 313 315 319 317 321 323 327 330 336 352 349 350 7 318 344 320 252 270 243 242 204 204 199 201 201 200 193 192 195 202 206 211 217 223 224 229 237 200 201 216 227 246 232 239 261
308 309 310 310 312 311 315 319 320 328 332 339 348 341 341 354 305 285 293 242 255 240 223 218 210 210 211 208 209 207 207 209 213 220 222 226 224 231 243 205 214 220 232 237 248 261 269
305 306 305 304 306 326 310 315 318 319 331 329 331 341 333 330 339 300 272 262 247 243 237 237 227 217 218 219 217 216 214 216 218 224 229 230 230 234 239 232 217 224 236 247 243 251 278
302 305 285 298 305 310 308 312 314 322 319 326 325 327 333 321 318 317 293 264 240 233 237 231 231 228 220 221 222 223 222 219 219 225 229 225 232 228 218 221 229 228 234 247 246 256 282